Regional Weather Roundup
Issued by NWS

Home | Current Version | Previous Version | Graphics & Text | Print | Product List | Glossary On
Versions: 1 2 3 4 5 6 7 8 9 10 11 12 13 14 15 16 17 18 19 20 21 22 23 24 25 26 27 28 29 30 31 32 33 34 35 36 37 38 39 40 41 42 43 44 45 46 47 48 49 50
000
ASUS45 KTFX 251419
RWRMT
MONTANA HOURLY WEATHER ROUNDUP
NATIONAL WEATHER SERVICE GREAT FALLS MT
719 AM MST SUN JAN 25 2015

NOTE: "FAIR" INDICATES FEW OR NO CLOUDS BELOW 12000 FEET WITH NO
SIGNIFICANT WEATHER AND/OR OBSTRUCTIONS TO VISIBILITY.

* THESE STATIONS ARE NOT UNDER NWS QUALITY CONTROL. THEY DO NOT
   REPORT WEATHER SUCH AS PRECIPITATION OR FOG.

MTZ001>007-043-251500-
WEST OF THE DIVIDE
CITY           SKY/WX    TMP DP  RH WIND       PRES   REMARKS
KALISPELL      CLOUDY    37  37 100 SW7       30.14S WCI  32
MISSOULA       FOG       32  32 100 CALM      30.24F VSB M1/4
BUTTE          PTCLDY    32  30  92 SE3       30.25R
MULLAN PASS    FOG       37  37 100 VRB6      30.22S WCI  32
* ANACONDA     PTCLDY    45  36  71 SW6        N/A
* ESSEX        N/A       36  35  96 W1         N/A
* EUREKA APT   MOCLDY    43  37  79 SE10      30.11S
* HAMILTON APT PTCLDY    48  37  66 S12       30.23R
* LIBBY APT    CLOUDY    34  34 100 S3        30.15S VSB M1/4
* LINCOLN      N/A       40  37  89 S3         N/A
* LOOKOUT PASS N/A       43  40  89 NE6G11     N/A
* POLSON       N/A       39  38  96 SE2        N/A
* RONAN APT    MOCLDY    39  39 100 N/A        N/A
* SEELEY LAKE  N/A       34  33  96 N2         N/A
* THOMP F APT  CLOUDY    23  21  92 E2         N/A
* YAAK HILL    N/A       36  34  92 VRB1       N/A
$$

MTZ008-052>055-251500-
SOUTHWEST MONTANA
CITY           SKY/WX    TMP DP  RH WIND       PRES   REMARKS
BOZEMAN        MOCLDY    34  30  85 SE6       30.19F WCI  29
DILLON         PTCLDY    41  30  65 SW14      30.27R
* W YELLOWSTON PTCLDY    26  25  96 SW3G8      N/A
* THREE FORKS  CLOUDY    39  39 100 N/A        N/A
* BOULDER HILL N/A       45  30  56 SW9G16     N/A
* MONIDA PASS  N/A       22  22 100 SE16       N/A   WCI   8
* RAYNOLDS PAS N/A       25   8  48 SE22G27    N/A   WCI  10
* WHITEHALL    N/A       47  32  56 SW11G19    N/A
* WISE RIVER   N/A       42  34  73 NW9G17     N/A
$$

MTZ009>010-012-014-046-048-049-054-251500-
EAST SLOPES AND CENTRAL MONTANA
CITY           SKY/WX    TMP DP  RH WIND       PRES   REMARKS
CUT BANK       CLOUDY    48  37  66 W28G37    29.91S
GREAT FALLS    CLOUDY    50  37  61 SW20      29.95F
HELENA         CLOUDY    54  36  51 W16G31    30.12S
MALMSTROM AFB  CLOUDY    50  37  61 SW24G32   29.96F
* CONRAD       CLOUDY    39  36  89 S6         N/A   WCI  35
* DEARBORN     N/A       53  37  55 E1G9       N/A
* EAST GLACIER N/A       45  36  71 W20G28     N/A
* MONARCH      N/A       46  29  52 W25G31     N/A
* PENDROY      N/A       51  33  50 E6G12      N/A
* ROGERS PASS  N/A       43  37  79 SE19G40    N/A
* SWEET GRASS  N/A       48  34  59 W36G45     N/A
* WHITE SULPH  N/A       43  36  76 W7G14      N/A
$$

MTZ011-013-016-021-035-040-045-047-050-051-251500-
NORTH CENTRAL MONTANA
CITY           SKY/WX    TMP DP  RH WIND       PRES   REMARKS
HAVRE          MOCLDY    36  32  85 SW3       29.89F
LEWISTOWN      CLOUDY    39  34  82 SW16      29.97F WCI  30
* N BAR RANCH  CLEAR     39  32  76 W7        29.97F WCI  34
* CHINOOK      MOCLDY    28  25  89 E3        29.91F
* CHESTER      N/A       34  30  85 S4         N/A
* DENTON       N/A       40  33  76 S10        N/A   WCI  34
* GEYSER       N/A       51  33  50 SW20G27    N/A
* JUDITH GAP   N/A       43  37  79 W19G25     N/A
* LOMA         N/A       41  35  79 NW2        N/A
$$

MTZ017>020-022>027-061-062-251500-
NORTHEAST MONTANA
CITY           SKY/WX    TMP DP  RH WIND       PRES   REMARKS
GLASGOW        CLOUDY    30  27  89 SE7       29.98F WCI  23
GLENDIVE       PTCLDY    28  25  89 SW6       30.02F WCI  21
JORDAN         MOCLDY    34  30  85 CALM      29.98F
SIDNEY         CLOUDY    32  28  85 S6        30.04S WCI  26
WOLF POINT     MOCLDY    28  25  89 CALM      30.01S
* BEAVER HILL  N/A       27  24  88 SW7        N/A   WCI  19
* CIRCLE       N/A       31  27  85 N/A        N/A
* LINDSAY DVD  N/A       28  23  81 W7         N/A   WCI  21
* NAVAJO       N/A       29  28  96 SW11       N/A   WCI  19
* PLENTYWOOD A MOCLDY    32  30  92 SW8       29.97R WCI  25
* POPLAR APT   MOCLDY    28  27  96 CALM      30.00F
* SACO         N/A       28  25  89 NE2        N/A
$$

MTZ028>042-056>058-251500-
SOUTHCENTRAL AND SOUTHEAST MONTANA
CITY           SKY/WX    TMP DP  RH WIND       PRES   REMARKS
BAKER          CLEAR     27  21  78 W12       30.03F WCI  16
BILLINGS       MOCLDY    39  30  70 SW21      30.03F WCI  29
LIVINGSTON     CLOUDY    46  28  50 SW33G45   30.11F
MILES CITY     CLOUDY    30  27  89 S5        30.03F WCI  25
* BIG TIMBER A CLOUDY    48  30  50 SW35G44   30.05F
* FORSYTH APT  PTCLDY    34  30  85 CALM      30.02F
* LAUREL APT   MOCLDY    37  19  48 SW6        N/A   WCI  32
* ROUNDUP APT  MOCLDY    43  34  71 S5         N/A
* ALZADA       N/A       29  24  82 W3G8       N/A
* HYSHAM       N/A       40  29  65 NW4G9      N/A
* LAME DEER    N/A       37  24  59 W6         N/A   WCI  32
* REED POINT   N/A       49  33  54 NW1G6      N/A
* ROSCOE HILL  N/A       49  21  33 SW1        N/A
$$

REGIONAL REPORTS...DAKOTAS
CITY           SKY/WX    TMP DP  RH WIND       PRES   REMARKS
WILLISTON      CLOUDY    32  28  85 W7        29.99S WCI  25
DICKINSON      CLOUDY    34  28  79 NW10      29.96F WCI  26
BEACH          MOCLDY    28  28 100 W7        30.01F WCI  21
CROSBY         CLOUDY    25  25 100 N6        29.97F WCI  18
TIOGA          CLOUDY    28  28 100 NW3       29.99S
WATFORD CITY   CLOUDY    32  28  85 NW3       29.97S
BISMARCK       CLOUDY    36  32  85 NW8       29.98R WCI  30
GRAND FORKS    FAIR      10   7  88 NW5       30.03R WCI   1
FARGO          MOCLDY    19  12  74 N8        30.00R WCI   9
BUFFALO SD     CLEAR     27  21  78 W10       29.95F WCI  18
RAPID CITY     PTCLDY    28  21  75 N12       30.02R WCI  18
$$

REGIONAL REPORTS...WYOMING/IDAHO/WASHINGTON
CITY           SKY/WX    TMP DP  RH WIND       PRES   REMARKS
GILLETTE       CLOUDY    36  30  79 W9        30.07F WCI  29
SHERIDAN       MOCLDY    34  28  79 SW5       30.05F WCI  29
CODY           PTCLDY    48  27  44 W17G25    30.10F
YELLOWSTONE LA CLOUDY    23  21  92 CALM      30.37S
SALMON         CLEAR     19  18  96 CALM      30.39R
MULLAN PASS    FOG       37  37 100 VRB6      30.22S WCI  32
SAND POINT     FOG       37  37 100 SW5       30.20F VSB 1 1/2 WCI  33
SPOKANE        FOG       45  43  93 S5        30.22R VSB 3
$$

REGIONAL REPORTS...ALBERTA
CITY           SKY/WX    TMP DP  RH WIND       PRES   REMARKS
CALGARY        MOCLDY    52  28  40 W14G21    29.76F
LETHBRIDGE     CLOUDY    52  36  55 W26G37    29.82F
MEDICINE HAT   FAIR      37  34  89 SW13      29.81F WCI  29
EDMONTON       MOCLDY    36  30  79 S12       29.64F WCI  28
WATERTON GATE  N/A       50  32  50 SW16G28    N/A
CARDSTON       N/A       52  36  55 W10G18     N/A
MILK RIVER     N/A       43  34  71 W8         N/A
$$

REGIONAL REPORTS...SASKATCHEWAN
CITY           SKY/WX    TMP DP  RH WIND       PRES   REMARKS
SWIFT CURRENT  MOCLDY    34  25  70 SW16      29.81F WCI  24
REGINA         FOG       25  25 100 SE8       29.92F VSB 1/4  WCI  16
VAL MARIE      N/A       27  25  92 S3         N/A
ASSINIBOIA     N/A       28  27  96 S6         N/A   WCI  21
CORONACH       N/A       27  25  92 E3         N/A

$$




USA.gov is the U.S. government's official web portal to all federal, state and local government web resources and services.